| time (UTC) | temp F | wind direction | speed MPH | gust MPH | rain 1hr in | rain 24hr in | rain mn in | humidity % | barometer mb |
| 20260509014535 | 54 | 192 | 0.0 | 0.0 | 0.00 | 0.00 | 0.00 | 60 | 1035.8 |
| 20260509013053 | 55 | 192 | 0.0 | 0.0 | 0.00 | 0.00 | 0.00 | 58 | 1035.9 |
| 20260509011536 | 56 | 192 | 0.0 | 0.0 | 0.00 | 0.00 | 0.00 | 55 | 1035.8 |
| 20260509010032 | 56 | 192 | 0.0 | 0.0 | 0.00 | 0.00 | 0.00 | 55 | 1035.7 |
| 20260509004534 | 56 | 192 | 0.0 | 0.0 | 0.00 | 0.00 | 0.00 | 55 | 1035.8 |
| 20260509003033 | 56 | 192 | 0.0 | 0.0 | 0.00 | 0.00 | 0.00 | 55 | 1035.6 |
| 20260509001530 | 57 | 192 | 0.0 | 0.0 | 0.00 | 0.00 | 0.00 | 56 | 1035.6 |
| 20260509000030 | 57 | 192 | 0.0 | 0.0 | 0.00 | 0.00 | 0.00 | 55 | 1035.8 |
| 20260508234528 | 57 | 192 | 0.0 | 0.0 | 0.00 | 0.00 | 0.00 | 55 | 1035.7 |
| 20260508233030 | 57 | 192 | 0.0 | 0.0 | 0.00 | 0.00 | 0.00 | 55 | 1035.7 |
| 20260508231528 | 58 | 192 | 0.0 | 2.0 | 0.00 | 0.00 | 0.00 | 53 | 1035.4 |
| 20260508230046 | 58 | 190 | 0.0 | 0.0 | 0.00 | 0.00 | 0.00 | 53 | 1035.5 |
| 20260508224552 | 59 | 190 | 0.0 | 0.0 | 0.00 | 0.00 | 0.00 | 52 | 1035.5 |
| 20260508223031 | 59 | 219 | 0.0 | 3.0 | 0.00 | 0.00 | 0.00 | 52 | 1035.5 |
| 20260508221523 | 59 | 216 | 1.0 | 4.0 | 0.00 | 0.00 | 0.00 | 52 | 1035.4 |
| 20260508220021 | 59 | 217 | 0.0 | 3.0 | 0.00 | 0.00 | 0.00 | 53 | 1035.5 |
| 20260508214520 | 59 | 216 | 0.0 | 2.0 | 0.00 | 0.00 | 0.00 | 52 | 1035.7 |
| 20260508213019 | 59 | 214 | 0.0 | 4.0 | 0.00 | 0.00 | 0.00 | 53 | 1035.8 |
| 20260508211518 | 59 | 200 | 0.0 | 3.0 | 0.00 | 0.00 | 0.00 | 52 | 1035.8 |
| 20260508210016 | 59 | 190 | 0.0 | 1.0 | 0.00 | 0.00 | 0.00 | 49 | 1036.0 |
| 20260508204517 | 58 | 205 | 2.0 | 7.0 | 0.00 | 0.00 | 0.00 | 53 | 1036.3 |
| 20260508203012 | 59 | 221 | 0.0 | 6.0 | 0.00 | 0.00 | 0.00 | 51 | 1036.4 |
| 20260508201510 | 59 | 229 | 0.0 | 5.0 | 0.00 | 0.00 | 0.00 | 52 | 1036.7 |
| 20260508200008 | 58 | 153 | 0.0 | 5.0 | 0.00 | 0.00 | 0.00 | 53 | 1036.7 |
| 20260508194506 | 58 | 198 | 0.0 | 5.0 | 0.00 | 0.00 | 0.00 | 56 | 1036.7 |
| 20260508193004 | 59 | 217 | 0.0 | 3.0 | 0.00 | 0.00 | 0.00 | 51 | 1036.9 |
| 20260508191504 | 58 | 192 | 0.0 | 3.0 | 0.00 | 0.00 | 0.00 | 54 | 1037.1 |
| 20260508184629 | 57 | 200 | 0.0 | 3.0 | 0.00 | 0.00 | 0.00 | 57 | 1037.2 |
| 20260508183058 | 56 | 171 | 0.0 | 3.0 | 0.00 | 0.00 | 0.00 | 56 | 1037.6 |
| 20260508181552 | 55 | 186 | 0.0 | 5.0 | 0.00 | 0.00 | 0.00 | 57 | 1037.6 |
| 20260508180059 | 55 | 191 | 0.0 | 2.0 | 0.00 | 0.00 | 0.00 | 58 | 1037.7 |
| 20260508174606 | 55 | 217 | 1.0 | 5.0 | 0.00 | 0.00 | 0.00 | 62 | 1037.9 |
| 20260508173059 | 54 | 219 | 0.0 | 5.0 | 0.00 | 0.00 | 0.00 | 62 | 1037.9 |
| 20260508171612 | 55 | 166 | 1.0 | 5.0 | 0.00 | 0.00 | 0.00 | 59 | 1037.9 |
| 20260508170048 | 55 | 120 | 0.0 | 4.0 | 0.00 | 0.00 | 0.00 | 54 | 1037.9 |
| 20260508164545 | 55 | 55 | 0.0 | 1.0 | 0.00 | 0.00 | 0.00 | 53 | 1037.9 |
| 20260508163040 | 54 | 55 | 0.0 | 0.0 | 0.00 | 0.00 | 0.00 | 59 | 1038.1 |
| 20260508161543 | 52 | 52 | 0.0 | 3.0 | 0.00 | 0.00 | 0.00 | 62 | 1038.4 |
| 20260508160037 | 50 | 45 | 0.0 | 0.0 | 0.00 | 0.00 | 0.00 | 65 | 1038.5 |
| 20260508154528 | 48 | 45 | 0.0 | 0.0 | 0.00 | 0.00 | 0.00 | 74 | 1038.7 |
| 20260508153034 | 45 | 45 | 0.0 | 0.0 | 0.00 | 0.00 | 0.00 | 74 | 1038.9 |
| 20260508151535 | 44 | 45 | 0.0 | 0.0 | 0.00 | 0.00 | 0.00 | 81 | 1038.9 |
| 20260508150020 | 43 | 44 | 0.0 | 0.0 | 0.00 | 0.00 | 0.00 | 82 | 1039.1 |
| 20260508144515 | 42 | 44 | 0.0 | 0.0 | 0.00 | 0.00 | 0.00 | 84 | 1039.3 |
| 20260508143012 | 41 | 44 | 0.0 | 0.0 | 0.00 | 0.00 | 0.00 | 88 | 1039.6 |
| 20260508141512 | 39 | 53 | 0.0 | 0.0 | 0.00 | 0.00 | 0.00 | 91 | 1039.7 |
| 20260508140007 | 37 | 60 | 0.0 | 0.0 | 0.00 | 0.00 | 0.00 | 91 | 1040.0 |
| 20260508134506 | 36 | 60 | 0.0 | 0.0 | 0.00 | 0.00 | 0.00 | 90 | 1040.1 |
| 20260508133009 | 35 | 60 | 0.0 | 0.0 | 0.00 | 0.00 | 0.00 | 91 | 1040.2 |
| 20260508131505 | 34 | 60 | 0.0 | 0.0 | 0.00 | 0.00 | 0.00 | 91 | 1040.1 |
| 20260508130004 | 33 | 60 | 0.0 | 0.0 | 0.00 | 0.00 | 0.00 | 90 | 1040.0 |
| 20260508124501 | 32 | 60 | 0.0 | 0.0 | 0.00 | 0.00 | 0.00 | 90 | 1039.7 |
| 20260508123104 | 32 | 60 | 0.0 | 0.0 | 0.00 | 0.00 | 0.00 | 90 | 1039.1 |
| 20260508121601 | 32 | 60 | 0.0 | 0.0 | 0.00 | 0.00 | 0.00 | 90 | 1038.7 |
| 20260508120056 | 32 | 60 | 0.0 | 0.0 | 0.00 | 0.00 | 0.00 | 90 | 1038.4 |
| 20260508114554 | 32 | 60 | 0.0 | 0.0 | 0.00 | 0.00 | 0.00 | 89 | 1038.4 |
| 20260508113101 | 33 | 60 | 0.0 | 0.0 | 0.00 | 0.00 | 0.00 | 90 | 1038.1 |
| 20260508111556 | 33 | 5 | 0.0 | 0.0 | 0.00 | 0.00 | 0.00 | 89 | 1038.0 |
| 20260508110048 | 33 | 5 | 0.0 | 0.0 | 0.00 | 0.00 | 0.00 | 89 | 1038.0 |
| 20260508104551 | 33 | 5 | 0.0 | 0.0 | 0.00 | 0.00 | 0.00 | 89 | 1038.1 |
| 20260508103046 | 33 | 5 | 0.0 | 0.0 | 0.00 | 0.00 | 0.00 | 89 | 1038.1 |
| 20260508101548 | 33 | 5 | 0.0 | 1.0 | 0.00 | 0.00 | 0.00 | 88 | 1037.9 |
| 20260508100043 | 33 | 5 | 0.0 | 0.0 | 0.00 | 0.00 | 0.00 | 87 | 1038.0 |
| 20260508094542 | 34 | 5 | 0.0 | 0.0 | 0.00 | 0.00 | 0.00 | 87 | 1037.9 |
| 20260508093038 | 35 | 5 | 0.0 | 0.0 | 0.00 | 0.00 | 0.00 | 86 | 1037.7 |
| 20260508091603 | 35 | 5 | 0.0 | 0.0 | 0.00 | 0.00 | 0.00 | 86 | 1038.1 |
| 20260508090036 | 35 | 5 | 0.0 | 0.0 | 0.00 | 0.00 | 0.00 | 86 | 1037.8 |
| 20260508084533 | 35 | 5 | 0.0 | 0.0 | 0.00 | 0.00 | 0.00 | 85 | 1037.9 |
| 20260508083035 | 36 | 5 | 0.0 | 0.0 | 0.00 | 0.00 | 0.00 | 84 | 1038.0 |
| 20260508081527 | 36 | 5 | 0.0 | 0.0 | 0.00 | 0.00 | 0.00 | 83 | 1038.1 |
| 20260508080032 | 37 | 5 | 0.0 | 0.0 | 0.00 | 0.00 | 0.00 | 83 | 1038.2 |
| 20260508074523 | 38 | 5 | 0.0 | 0.0 | 0.00 | 0.00 | 0.00 | 83 | 1038.4 |
| 20260508073025 | 38 | 5 | 0.0 | 0.0 | 0.00 | 0.00 | 0.00 | 83 | 1038.6 |
| 20260508071519 | 38 | 5 | 0.0 | 0.0 | 0.00 | 0.00 | 0.00 | 81 | 1038.8 |
| 20260508070015 | 39 | 5 | 0.0 | 0.0 | 0.00 | 0.00 | 0.00 | 81 | 1038.8 |
| 20260508064520 | 39 | 5 | 0.0 | 1.0 | 0.00 | 0.00 | 0.00 | 81 | 1039.4 |
| 20260508063012 | 39 | 5 | 0.0 | 0.0 | 0.00 | 0.00 | 0.00 | 79 | 1039.1 |
| 20260508061510 | 39 | 5 | 0.0 | 0.0 | 0.00 | 0.00 | 0.00 | 78 | 1039.0 |
| 20260508060008 | 39 | 5 | 0.0 | 0.0 | 0.00 | 0.00 | 0.00 | 75 | 1038.9 |
| 20260508054505 | 41 | 5 | 0.0 | 0.0 | 0.00 | 0.00 | 0.00 | 73 | 1039.1 |
| 20260508053006 | 41 | 5 | 0.0 | 0.0 | 0.00 | 0.00 | 0.00 | 71 | 1038.8 |
| 20260508051504 | 40 | 5 | 0.0 | 0.0 | 0.00 | 0.00 | 0.00 | 72 | 1038.7 |
| 20260508050004 | 41 | 5 | 0.0 | 0.0 | 0.00 | 0.00 | 0.00 | 71 | 1038.6 |
| 20260508044503 | 42 | 5 | 0.0 | 0.0 | 0.00 | 0.00 | 0.00 | 69 | 1038.5 |
| 20260508043003 | 42 | 5 | 0.0 | 0.0 | 0.00 | 0.00 | 0.00 | 67 | 1038.5 |
| 20260508041507 | 43 | 5 | 0.0 | 0.0 | 0.00 | 0.00 | 0.00 | 66 | 1038.6 |
| 20260508040001 | 43 | 5 | 0.0 | 0.0 | 0.00 | 0.00 | 0.00 | 65 | 1038.7 |
| 20260508034601 | 43 | 5 | 0.0 | 0.0 | 0.00 | 0.00 | 0.00 | 66 | 1038.7 |
| 20260508033105 | 44 | 5 | 0.0 | 0.0 | 0.00 | 0.00 | 0.00 | 65 | 1038.7 |
| 20260508031605 | 45 | 5 | 0.0 | 0.0 | 0.00 | 0.00 | 0.00 | 62 | 1038.8 |
| 20260508030115 | 48 | 5 | 0.0 | 0.0 | 0.00 | 0.00 | 0.00 | 58 | 1038.8 |
| 20260508024603 | 49 | 5 | 0.0 | 0.0 | 0.00 | 0.00 | 0.00 | 55 | 1038.8 |
| 20260508023059 | 49 | 14 | 0.0 | 3.0 | 0.00 | 0.00 | 0.00 | 55 | 1038.8 |
| 20260508021558 | 50 | 5 | 0.0 | 7.0 | 0.00 | 0.00 | 0.00 | 53 | 1039.2 |
| 20260508020107 | 51 | 23 | 0.0 | 5.0 | 0.00 | 0.00 | 0.00 | 51 | 1039.2 |